Printer-friendly version
Follow the MPC on Twitter Follow the MPC on Facebook The MPC blog
Minor Planet Center

MPEC 2002-V28 : 2002 VS14

The following Minor Planet Electronic Circular may be linked-to from your own Web pages, but must not otherwise be redistributed electronically.

A form allowing access to any MPEC is at the bottom of this page.


Read MPEC 2002-V27 Read MPEC 2002-V29


M.P.E.C. 2002-V28                                Issued 2002 Nov. 7, 18:33 UT

     The Minor Planet Electronic Circulars contain information on unusual
         minor planets and routine data on comets.  They are published
   on behalf of Commission 20 of the International Astronomical Union by the
          Minor Planet Center, Smithsonian Astrophysical Observatory,
                          Cambridge, MA 02138, U.S.A.

             Prepared using the Tamkin Foundation Computer Network

                              MPC@CFA.HARVARD.EDU
          URL http://cfa-www.harvard.edu/iau/mpc.html  ISSN 1523-6714

                                   2002 VS14

Observations:
     K02V14S* C2002 11 06.26781 03 27 50.68 +27 46 36.5          18.7 R      699
     K02V14S  C2002 11 06.28619 03 27 41.05 +27 47 55.1                      699
     K02V14S  C2002 11 06.30458 03 27 31.41 +27 49 11.7                      699
     K02V14S  C2002 11 06.32284 03 27 21.78 +27 50 28.4                      699
     K02V14S  C2002 11 06.83277 03 23 05.50 +28 25 09.4                      557
     K02V14S  C2002 11 06.83346 03 23 05.16 +28 25 12.7                      557
     K02V14S  C2002 11 06.83417 03 23 04.82 +28 25 16.0                      557
     K02V14S  C2002 11 07.07397 03 21 00.95 +28 41 20.1                      246
     K02V14S  C2002 11 07.07485 03 21 00.46 +28 41 23.5                      246
     K02V14S  C2002 11 07.07580 03 21 00.00 +28 41 27.2                      246
     K02V14S  C2002 11 07.07639 03 20 59.71 +28 41 30.0                      246
     K02V14S  C2002 11 07.07686 03 20 59.49 +28 41 31.1                      246
     K02V14S  C2002 11 07.08712 03 20 54.66 +28 42 12.3          18.5 R      J95
     K02V14S  C2002 11 07.08984 03 20 53.29 +28 42 23.2          18.2 R      J95
     K02V14S  C2002 11 07.09201 03 20 52.28 +28 42 31.3          18.3 R      J95
     K02V14S  C2002 11 07.11910 03 20 42.17 +28 44 23.1          19.3 R      858
     K02V14S  C2002 11 07.12586 03 20 38.89 +28 44 49.3          19.4 R      858
     K02V14S  C2002 11 07.12903 03 20 37.26 +28 45 01.9          18.9 R      858
     K02V14S  C2002 11 07.17493 03 20 13.54 +28 48 11.6          19.7 R      854
     K02V14S  C2002 11 07.17639 03 20 13.22 +28 48 15.6          19.7 R      854
     K02V14S  C2002 11 07.17786 03 20 12.46 +28 48 19.8          19.6 R      854
     K02V14S  C2002 11 07.28013 03 19 18.64 +28 55 06.7          18.8 R      734
     K02V14S  C2002 11 07.28392 03 19 16.80 +28 55 17.2          18.7 R      734
     K02V14S  C2002 11 07.28931 03 19 13.94 +28 55 37.2          19.1 R      734
     K02V14S  C2002 11 07.32817 03 18 54.36 +28 58 17.3          19.4 R      926
     K02V14S  C2002 11 07.32898 03 18 53.95 +28 58 20.2          19.5 R      926
     K02V14S  C2002 11 07.32979 03 18 53.60 +28 58 22.8          19.6 R      926
     K02V14S  C2002 11 07.33060 03 18 53.11 +28 58 26.9          19.5 R      926

Observer details:
246 Klet Observatory-KLENOT.  Observer M. Tichy.  1.06-m KLENOT Telescope
    + CCD.
557 Ondrejov.  Observers L. Sarounova, P. Pravec.  0.65-m f/3.6 reflector
    + CCD.
699 Lowell Observatory-LONEOS.  Observer B. A. Skiff.  0.59-m LONEOS Schmidt
    + CCD.
734 Farpoint Observatory.  Observer G. Hug.  0.30-m Schmidt-Cassegrain + CCD.
854 Sabino Canyon Observatory, Tucson.  Observer J. E. McGaha.  0.30-m f/10
    Schmidt-Cassegrain + CCD.
858 Tebbutt Observatory, Edgewood.  Observer F. B. Zoltowski.  0.33-m f/3.3
    Schmidt-Cassegrain + CCD.
926 Tenagra II Observatory.  Observers M. Schwartz, P. R. Holvorcem.
    Measurer P. R. Holvorcem.  0.81-m f/7 Ritchey-Chretien + CCD.
J95 Great Shefford.  Observer P. Birtwhistle.  0.30-m f/6.3 Schmidt-Cassegrain
    + CCD.

Orbital elements:
2002 VS14
Epoch 2002 Nov. 2.0 TT = JDT 2452580.5                  MPC
M 104.31778              (2000.0)            P               Q
n   0.97272303     Peri.  226.81593     -0.05326277     +0.96134245
a   1.0088113      Node    42.48778     -0.76022535     +0.13637844
e   0.3024431      Incl.   23.57650     -0.64747239     -0.23921038
P   1.01           H   22.1           G   0.15
From 28 observations 2002 Nov. 6-7.

Ephemeris:
2002 VS14                a,e,i = 1.01, 0.30, 24                  q = 0.7037
Date    TT    R. A. (2000) Decl.     Delta      r     Elong.  Phase     V
2002 11 02    04 04.04   +22 08.1    0.179    1.159   156.0    20.4    19.7
2002 11 12    02 41.65   +33 10.4    0.213    1.196   163.3    13.7    19.9
2002 11 22    01 41.02   +37 33.7    0.275    1.228   147.2    25.9    20.9
2002 12 02    01 07.92   +38 48.9    0.352    1.255   133.6    34.7    21.8

Timothy B. Spahr             (C) Copyright 2002 MPC           M.P.E.C. 2002-V28

Read MPEC 2002-V27 Read MPEC 2002-V29


MPEC number:

Enter an MPEC number in one of the following forms:

  • 1997-B01 (the full form)
  • J97B01 (the packed version of the full form)
  • B01 (the abbreviated form)

Valid HTML 4.01!